Location: �perlecques
(50.8057°N, 2.1521°E)
Time: 13:02:31
(UTC+00:00)

VELOX 1 - Pass Details

Date: 30 September 2021
Orbit: 626 x 643 km, 98.3° (Epoch: 16 October)

Event Time Altitude Azimuth Distance (km) Brightness Sun altitude
Exits shadow 02:57:13 57° 95° (E) 745 ? -26.9°
Maximum altitude 02:57:35 59° 70° (ENE) 728 ? -26.9°
Drops below altitude 10° 03:01:54 10° 352° (N) 2,017 ? -26.3°
Sets 03:04:07 0° 349° (NNW) 2,928 ? -26.0°
